Location: Sebastopol
(38.4021°N, 122.8239°W)
Time: 14:18:19
(UTC+00:00)

H-2A R/B - Pass Details

Date: 29 October 2020
Orbit: 577 x 656 km, 98.5° (Epoch: 01 December)

Event Time Altitude Azimuth Distance (km) Brightness Sun altitude
Rises 13:20:38 0° 205° (SSW) 2,951 5.3 -15.1°
Reaches altitude 10° 13:23:34 10° 226° (SW) 2,036 4.3 -14.6°
Enters shadow 13:23:38 10° 227° (SW) 2,019 4.3 -14.5°
